Year,Month,Day,Hour,Minute,Value (Times are PST for temperature in C)
2005,07,21,00,00,15.30
2005,07,21,00,01,15.30
2005,07,21,00,02,15.30
2005,07,21,00,03,15.30
2005,07,21,00,04,15.30
2005,07,21,00,05,15.30
2005,07,21,00,06,15.30
2005,07,21,00,07,15.20
2005,07,21,00,08,15.20
2005,07,21,00,09,15.20
2005,07,21,00,10,15.20
2005,07,21,00,11,15.10
2005,07,21,00,12,15.10
2005,07,21,00,13,15.10
2005,07,21,00,14,15.10
2005,07,21,00,15,15.00
2005,07,21,00,16,15.00
2005,07,21,00,17,15.00
2005,07,21,00,18,14.90
2005,07,21,00,19,14.90
2005,07,21,00,20,14.90
2005,07,21,00,21,14.90
2005,07,21,00,22,14.90
2005,07,21,00,23,14.80
2005,07,21,00,24,14.80
2005,07,21,00,25,14.80
2005,07,21,00,26,14.80
2005,07,21,00,27,14.80
2005,07,21,00,28,14.80
2005,07,21,00,29,14.70
2005,07,21,00,30,14.70
2005,07,21,00,31,14.70
2005,07,21,00,32,14.70
2005,07,21,00,33,14.60
2005,07,21,00,34,14.60
2005,07,21,00,35,14.60
2005,07,21,00,36,14.60
2005,07,21,00,37,14.50
2005,07,21,00,38,14.50
2005,07,21,00,39,14.50
2005,07,21,00,40,14.50
2005,07,21,00,41,14.50
2005,07,21,00,42,14.40
2005,07,21,00,43,14.40
2005,07,21,00,44,14.40
2005,07,21,00,45,14.40
2005,07,21,00,46,14.40
2005,07,21,00,47,14.40
2005,07,21,00,48,14.40
2005,07,21,00,49,14.40
2005,07,21,00,50,14.30
2005,07,21,00,51,14.30
2005,07,21,00,52,14.20
2005,07,21,00,53,14.20
2005,07,21,00,54,14.10
2005,07,21,00,55,14.00
2005,07,21,00,56,14.00
2005,07,21,00,57,13.90
2005,07,21,00,58,13.90
2005,07,21,00,59,13.80
2005,07,21,01,00,13.70
2005,07,21,01,01,13.70
2005,07,21,01,02,13.70
2005,07,21,01,03,13.70
2005,07,21,01,04,13.70
2005,07,21,01,05,13.70
2005,07,21,01,06,13.70
2005,07,21,01,07,13.70
2005,07,21,01,08,13.70
2005,07,21,01,09,13.70
2005,07,21,01,10,13.70
2005,07,21,01,11,13.70
2005,07,21,01,12,13.70
2005,07,21,01,13,13.70
2005,07,21,01,14,13.70
2005,07,21,01,15,13.70
2005,07,21,01,16,13.70
2005,07,21,01,17,13.70
2005,07,21,01,18,13.70
2005,07,21,01,19,13.70
2005,07,21,01,20,13.70
2005,07,21,01,21,13.70
2005,07,21,01,22,13.70
2005,07,21,01,23,13.60
2005,07,21,01,24,13.60
2005,07,21,01,25,13.60
2005,07,21,01,26,13.60
2005,07,21,01,27,13.60
2005,07,21,01,28,13.60
2005,07,21,01,29,13.60
2005,07,21,01,30,13.60
2005,07,21,01,31,13.60
2005,07,21,01,32,13.60
2005,07,21,01,33,13.60
2005,07,21,01,34,13.60
2005,07,21,01,35,13.60
2005,07,21,01,36,13.50
2005,07,21,01,37,13.50
2005,07,21,01,38,13.50
2005,07,21,01,39,13.50
2005,07,21,01,40,13.50
2005,07,21,01,41,13.50
2005,07,21,01,42,13.40
2005,07,21,01,43,13.40
2005,07,21,01,44,13.40
2005,07,21,01,45,13.40
2005,07,21,01,46,13.40
2005,07,21,01,47,13.40
2005,07,21,01,48,13.40
2005,07,21,01,49,13.40
2005,07,21,01,50,13.50
2005,07,21,01,51,13.50
2005,07,21,01,52,13.50
2005,07,21,01,53,13.50
2005,07,21,01,54,13.50
2005,07,21,01,55,13.50
2005,07,21,01,56,13.50
2005,07,21,01,57,13.50
2005,07,21,01,58,13.50
2005,07,21,01,59,13.40
2005,07,21,02,00,13.40
2005,07,21,02,01,13.40
2005,07,21,02,02,13.40
2005,07,21,02,03,13.40
2005,07,21,02,04,13.40
2005,07,21,02,05,13.40
2005,07,21,02,06,13.40
2005,07,21,02,07,13.30
2005,07,21,02,08,13.30
2005,07,21,02,09,13.30
2005,07,21,02,10,13.30
2005,07,21,02,11,13.30
2005,07,21,02,12,13.20
2005,07,21,02,13,13.20
2005,07,21,02,14,13.20
2005,07,21,02,15,13.20
2005,07,21,02,16,13.10
2005,07,21,02,17,13.10
2005,07,21,02,18,13.10
2005,07,21,02,19,13.10
2005,07,21,02,20,13.10
2005,07,21,02,21,13.10
2005,07,21,02,22,13.00
2005,07,21,02,23,13.00
2005,07,21,02,24,13.00
2005,07,21,02,25,13.00
2005,07,21,02,26,13.00
2005,07,21,02,27,12.90
2005,07,21,02,28,12.90
2005,07,21,02,29,12.80
2005,07,21,02,30,12.80
2005,07,21,02,31,12.80
2005,07,21,02,32,12.70
2005,07,21,02,33,12.70
2005,07,21,02,34,12.70
2005,07,21,02,35,12.70
2005,07,21,02,36,12.60
2005,07,21,02,37,12.60
2005,07,21,02,38,12.60
2005,07,21,02,39,12.60
2005,07,21,02,40,12.60
2005,07,21,02,41,12.60
2005,07,21,02,42,12.60
2005,07,21,02,43,12.60
2005,07,21,02,44,12.60
2005,07,21,02,45,12.60
2005,07,21,02,46,12.60
2005,07,21,02,47,12.60
2005,07,21,02,48,12.50
2005,07,21,02,49,12.50
2005,07,21,02,50,12.50
2005,07,21,02,51,12.50
2005,07,21,02,52,12.50
2005,07,21,02,53,12.50
2005,07,21,02,54,12.50
2005,07,21,02,55,12.60
2005,07,21,02,56,12.60
2005,07,21,02,57,12.60
2005,07,21,02,58,12.60
2005,07,21,02,59,12.60
2005,07,21,03,00,12.60
2005,07,21,03,01,12.60
2005,07,21,03,02,12.60
2005,07,21,03,03,12.60
2005,07,21,03,04,12.60
2005,07,21,03,05,12.70
2005,07,21,03,06,12.70
2005,07,21,03,07,12.70
2005,07,21,03,08,12.70
2005,07,21,03,09,12.80
2005,07,21,03,10,12.80
2005,07,21,03,11,12.70
2005,07,21,03,12,12.70
2005,07,21,03,13,12.70
2005,07,21,03,14,12.70
2005,07,21,03,15,12.70
2005,07,21,03,16,12.70
2005,07,21,03,17,12.60
2005,07,21,03,18,12.60
2005,07,21,03,19,12.60
2005,07,21,03,20,12.50
2005,07,21,03,21,12.50
2005,07,21,03,22,12.50
2005,07,21,03,23,12.50
2005,07,21,03,24,12.50
2005,07,21,03,25,12.40
2005,07,21,03,26,12.40
2005,07,21,03,27,12.40
2005,07,21,03,28,12.40
2005,07,21,03,29,12.30
2005,07,21,03,30,12.30
2005,07,21,03,31,12.20
2005,07,21,03,32,12.20
2005,07,21,03,33,12.20
2005,07,21,03,34,12.20
2005,07,21,03,35,11.90
2005,07,21,03,36,11.90
2005,07,21,03,37,11.90
2005,07,21,03,38,12.00
2005,07,21,03,39,12.00
2005,07,21,03,40,12.10
2005,07,21,03,41,12.10
2005,07,21,03,42,12.20
2005,07,21,03,43,12.20
2005,07,21,03,44,12.20
2005,07,21,03,45,12.20
2005,07,21,03,46,12.20
2005,07,21,03,47,12.20
2005,07,21,03,48,12.20
2005,07,21,03,49,12.20
2005,07,21,03,50,12.20
2005,07,21,03,51,12.30
2005,07,21,03,52,12.30
2005,07,21,03,53,12.30
2005,07,21,03,54,12.30
2005,07,21,03,55,12.30
2005,07,21,03,56,12.40
2005,07,21,03,57,12.40
2005,07,21,03,58,12.40
2005,07,21,03,59,12.40
2005,07,21,04,00,12.30
2005,07,21,04,01,12.30
2005,07,21,04,02,12.10
2005,07,21,04,03,12.00
2005,07,21,04,04,11.90
2005,07,21,04,05,11.80
2005,07,21,04,06,11.80
2005,07,21,04,07,11.80
2005,07,21,04,08,11.80
2005,07,21,04,09,11.80
2005,07,21,04,10,11.80
2005,07,21,04,11,11.80
2005,07,21,04,12,11.70
2005,07,21,04,13,11.70
2005,07,21,04,14,11.70
2005,07,21,04,15,11.70
2005,07,21,04,16,11.70
2005,07,21,04,17,11.60
2005,07,21,04,18,11.60
2005,07,21,04,19,11.60
2005,07,21,04,20,11.60
2005,07,21,04,21,11.60
2005,07,21,04,22,11.60
2005,07,21,04,23,11.60
2005,07,21,04,24,11.60
2005,07,21,04,25,11.60
2005,07,21,04,26,11.60
2005,07,21,04,27,11.60
2005,07,21,04,28,11.60
2005,07,21,04,29,11.60
2005,07,21,04,30,11.60
2005,07,21,04,31,11.60
2005,07,21,04,32,11.60
2005,07,21,04,33,11.60
2005,07,21,04,34,11.60
2005,07,21,04,35,11.60
2005,07,21,04,36,11.60
2005,07,21,04,37,11.70
2005,07,21,04,38,11.70
2005,07,21,04,39,11.70
2005,07,21,04,40,11.70
2005,07,21,04,41,11.70
2005,07,21,04,42,11.70
2005,07,21,04,43,11.80
2005,07,21,04,44,11.80
2005,07,21,04,45,11.80
2005,07,21,04,46,11.80
2005,07,21,04,47,11.80
2005,07,21,04,48,11.80
2005,07,21,04,49,11.70
2005,07,21,04,50,11.70
2005,07,21,04,51,11.70
2005,07,21,04,52,11.70
2005,07,21,04,53,11.70
2005,07,21,04,54,11.70
2005,07,21,04,55,11.70
2005,07,21,04,56,11.70
2005,07,21,04,57,11.70
2005,07,21,04,58,11.80
2005,07,21,04,59,11.80
2005,07,21,05,00,11.80
2005,07,21,05,01,11.80
2005,07,21,05,02,11.80
2005,07,21,05,03,11.80
2005,07,21,05,04,11.80
2005,07,21,05,05,11.80
2005,07,21,05,06,11.80
2005,07,21,05,07,11.90
2005,07,21,05,08,11.90
2005,07,21,05,09,11.90
2005,07,21,05,10,11.90
2005,07,21,05,11,11.90
2005,07,21,05,12,11.90
2005,07,21,05,13,11.90
2005,07,21,05,14,11.90
2005,07,21,05,15,11.90
2005,07,21,05,16,11.90
2005,07,21,05,17,11.90
2005,07,21,05,18,11.90
2005,07,21,05,19,11.90
2005,07,21,05,20,11.90
2005,07,21,05,21,11.90
2005,07,21,05,22,11.90
2005,07,21,05,23,11.90
2005,07,21,05,24,11.90
2005,07,21,05,25,11.90
2005,07,21,05,26,11.90
2005,07,21,05,27,11.90
2005,07,21,05,28,11.90
2005,07,21,05,29,11.90
2005,07,21,05,30,11.80
2005,07,21,05,31,11.80
2005,07,21,05,32,11.80
2005,07,21,05,33,11.70
2005,07,21,05,34,11.60
2005,07,21,05,35,11.50
2005,07,21,05,36,11.40
2005,07,21,05,37,11.40
2005,07,21,05,38,11.40
2005,07,21,05,39,11.40
2005,07,21,05,40,11.40
2005,07,21,05,41,11.40
2005,07,21,05,42,11.30
2005,07,21,05,43,11.30
2005,07,21,05,44,11.40
2005,07,21,05,45,11.30
2005,07,21,05,46,11.30
2005,07,21,05,47,11.30
2005,07,21,05,48,11.30
2005,07,21,05,49,11.30
2005,07,21,05,50,11.20
2005,07,21,05,51,11.20
2005,07,21,05,52,11.20
2005,07,21,05,53,11.20
2005,07,21,05,54,11.20
2005,07,21,05,55,11.20
2005,07,21,05,56,11.20
2005,07,21,05,57,11.20
2005,07,21,05,58,11.20
2005,07,21,05,59,11.20
2005,07,21,06,00,11.30
2005,07,21,06,01,11.30
2005,07,21,06,02,11.30
2005,07,21,06,03,11.30
2005,07,21,06,04,11.40
2005,07,21,06,05,11.40
2005,07,21,06,06,11.40
2005,07,21,06,07,11.50
2005,07,21,06,08,11.60
2005,07,21,06,09,11.60
2005,07,21,06,10,11.60
2005,07,21,06,11,11.70
2005,07,21,06,12,11.70
2005,07,21,06,13,11.70
2005,07,21,06,14,11.70
2005,07,21,06,15,11.70
2005,07,21,06,16,11.70
2005,07,21,06,17,11.70
2005,07,21,06,18,11.70
2005,07,21,06,19,11.70
2005,07,21,06,20,11.70
2005,07,21,06,21,11.80
2005,07,21,06,22,11.80
2005,07,21,06,23,11.90
2005,07,21,06,24,11.90
2005,07,21,06,25,11.90
2005,07,21,06,26,11.90
2005,07,21,06,27,11.90
2005,07,21,06,28,11.90
2005,07,21,06,29,11.90
2005,07,21,06,30,11.90
2005,07,21,06,31,11.90
2005,07,21,06,32,12.00
2005,07,21,06,33,12.00
2005,07,21,06,34,12.00
2005,07,21,06,35,12.00
2005,07,21,06,36,12.10
2005,07,21,06,37,12.10
2005,07,21,06,38,12.10
2005,07,21,06,39,12.20
2005,07,21,06,40,12.30
2005,07,21,06,41,12.30
2005,07,21,06,42,12.30
2005,07,21,06,43,12.40
2005,07,21,06,44,12.50
2005,07,21,06,45,12.50
2005,07,21,06,46,12.60
2005,07,21,06,47,12.70
2005,07,21,06,48,12.80
2005,07,21,06,49,12.90
2005,07,21,06,50,12.90
2005,07,21,06,51,13.00
2005,07,21,06,52,13.10
2005,07,21,06,53,13.20
2005,07,21,06,54,13.20
2005,07,21,06,55,13.30
2005,07,21,06,56,13.40
2005,07,21,06,57,13.40
2005,07,21,06,58,13.50
2005,07,21,06,59,13.50
2005,07,21,07,00,13.50
2005,07,21,07,01,13.50
2005,07,21,07,02,13.50
2005,07,21,07,03,13.50
2005,07,21,07,04,13.50
2005,07,21,07,05,13.60
2005,07,21,07,06,13.70
2005,07,21,07,07,13.70
2005,07,21,07,08,13.80
2005,07,21,07,09,13.80
2005,07,21,07,10,13.90
2005,07,21,07,11,14.00
2005,07,21,07,12,14.10
2005,07,21,07,13,14.20
2005,07,21,07,14,14.20
2005,07,21,07,15,14.20
2005,07,21,07,16,14.30
2005,07,21,07,17,14.30
2005,07,21,07,18,14.40
2005,07,21,07,19,14.40
2005,07,21,07,20,14.40
2005,07,21,07,21,14.50
2005,07,21,07,22,14.50
2005,07,21,07,23,14.60
2005,07,21,07,24,14.60
2005,07,21,07,25,14.70
2005,07,21,07,26,14.70
2005,07,21,07,27,14.80
2005,07,21,07,28,14.80
2005,07,21,07,29,14.80
2005,07,21,07,30,14.90
2005,07,21,07,31,14.90
2005,07,21,07,32,15.00
2005,07,21,07,33,15.00
2005,07,21,07,34,15.10
2005,07,21,07,35,15.10
2005,07,21,07,36,15.10
2005,07,21,07,37,15.10
2005,07,21,07,38,15.30
2005,07,21,07,39,15.30
2005,07,21,07,40,15.30
2005,07,21,07,41,15.40
2005,07,21,07,42,15.40
2005,07,21,07,43,15.50
2005,07,21,07,44,15.60
2005,07,21,07,45,15.70
2005,07,21,07,46,15.70
2005,07,21,07,47,15.70
2005,07,21,07,48,15.70
2005,07,21,07,49,15.90
2005,07,21,07,50,15.90
2005,07,21,07,51,16.00
2005,07,21,07,52,16.10
2005,07,21,07,53,16.10
2005,07,21,07,54,16.10
2005,07,21,07,55,16.10
2005,07,21,07,56,16.20
2005,07,21,07,57,16.30
2005,07,21,07,58,16.40
2005,07,21,07,59,16.40
2005,07,21,08,00,16.60
2005,07,21,08,01,16.60
2005,07,21,08,02,16.70
2005,07,21,08,03,16.90
2005,07,21,08,04,17.00
2005,07,21,08,05,17.00
2005,07,21,08,06,17.10
2005,07,21,08,07,17.30
2005,07,21,08,08,17.30
2005,07,21,08,09,17.40
2005,07,21,08,10,17.50
2005,07,21,08,11,17.60
2005,07,21,08,12,17.70
2005,07,21,08,13,17.70
2005,07,21,08,14,17.80
2005,07,21,08,15,17.90
2005,07,21,08,16,17.90
2005,07,21,08,17,17.90
2005,07,21,08,18,17.80
2005,07,21,08,19,17.80
2005,07,21,08,20,17.80
2005,07,21,08,21,17.80
2005,07,21,08,22,17.90
2005,07,21,08,23,17.90
2005,07,21,08,24,17.90
2005,07,21,08,25,18.00
2005,07,21,08,26,18.10
2005,07,21,08,27,18.20
2005,07,21,08,28,18.20
2005,07,21,08,29,18.20
2005,07,21,08,30,18.20
2005,07,21,08,31,18.20
2005,07,21,08,32,18.20
2005,07,21,08,33,18.30
2005,07,21,08,34,18.40
2005,07,21,08,35,18.40
2005,07,21,08,36,18.50
2005,07,21,08,37,18.50
2005,07,21,08,38,18.60
2005,07,21,08,39,18.70
2005,07,21,08,40,18.70
2005,07,21,08,41,18.70
2005,07,21,08,42,19.00
2005,07,21,08,43,19.10
2005,07,21,08,44,19.10
2005,07,21,08,45,19.20
2005,07,21,08,46,19.30
2005,07,21,08,47,19.40
2005,07,21,08,48,19.40
2005,07,21,08,49,19.40
2005,07,21,08,50,19.40
2005,07,21,08,51,19.40
2005,07,21,08,52,19.50
2005,07,21,08,53,19.50
2005,07,21,08,54,19.50
2005,07,21,08,55,19.50
2005,07,21,08,56,19.50
2005,07,21,08,57,19.50
2005,07,21,08,58,19.60
2005,07,21,08,59,19.60
2005,07,21,09,00,19.80
2005,07,21,09,01,19.90
2005,07,21,09,02,19.90
2005,07,21,09,03,19.90
2005,07,21,09,04,19.90
2005,07,21,09,05,19.90
2005,07,21,09,06,19.90
2005,07,21,09,07,19.90
2005,07,21,09,08,20.00
2005,07,21,09,09,20.10
2005,07,21,09,10,20.20
2005,07,21,09,11,20.30
2005,07,21,09,12,20.40
2005,07,21,09,13,20.50
2005,07,21,09,14,20.50
2005,07,21,09,15,20.60
2005,07,21,09,16,20.70
2005,07,21,09,17,20.80
2005,07,21,09,18,20.90
2005,07,21,09,19,20.90
2005,07,21,09,20,20.70
2005,07,21,09,21,20.40
2005,07,21,09,22,20.10
2005,07,21,09,23,19.90
2005,07,21,09,24,19.70
2005,07,21,09,25,19.60
2005,07,21,09,26,19.50
2005,07,21,09,27,19.50
2005,07,21,09,28,19.50
2005,07,21,09,29,19.50
2005,07,21,09,30,19.50
2005,07,21,09,31,19.50
2005,07,21,09,32,19.70
2005,07,21,09,33,19.90
2005,07,21,09,34,20.00
2005,07,21,09,35,20.10
2005,07,21,09,36,20.10
2005,07,21,09,37,20.00
2005,07,21,09,38,20.10
2005,07,21,09,39,20.10
2005,07,21,09,40,20.10
2005,07,21,09,41,20.20
2005,07,21,09,42,20.20
2005,07,21,09,43,20.20
2005,07,21,09,44,20.20
2005,07,21,09,45,20.20
2005,07,21,09,46,20.00
2005,07,21,09,47,19.90
2005,07,21,09,48,19.90
2005,07,21,09,49,19.90
2005,07,21,09,50,19.90
2005,07,21,09,51,19.90
2005,07,21,09,52,20.00
2005,07,21,09,53,20.10
2005,07,21,09,54,20.20
2005,07,21,09,55,20.40
2005,07,21,09,56,20.60
2005,07,21,09,57,20.60
2005,07,21,09,58,20.80
2005,07,21,09,59,20.90
2005,07,21,10,00,20.90
2005,07,21,10,01,20.90
2005,07,21,10,02,21.00
2005,07,21,10,03,21.00
2005,07,21,10,04,21.10
2005,07,21,10,05,21.10
2005,07,21,10,06,21.00
2005,07,21,10,07,21.00
2005,07,21,10,08,21.00
2005,07,21,10,09,21.00
2005,07,21,10,10,21.00
2005,07,21,10,11,21.00
2005,07,21,10,12,21.10
2005,07,21,10,13,21.30
2005,07,21,10,14,21.40
2005,07,21,10,15,21.40
2005,07,21,10,16,21.30
2005,07,21,10,17,21.30
2005,07,21,10,18,21.30
2005,07,21,10,19,21.50
2005,07,21,10,20,21.60
2005,07,21,10,21,21.80
2005,07,21,10,22,21.90
2005,07,21,10,23,22.00
2005,07,21,10,24,22.10
2005,07,21,10,25,22.30
2005,07,21,10,26,22.30
2005,07,21,10,27,22.40
2005,07,21,10,28,22.40
2005,07,21,10,29,22.40
2005,07,21,10,30,22.30
2005,07,21,10,31,22.30
2005,07,21,10,32,22.30
2005,07,21,10,33,22.30
2005,07,21,10,34,22.40
2005,07,21,10,35,22.50
2005,07,21,10,36,22.60
2005,07,21,10,37,22.60
2005,07,21,10,38,22.60
2005,07,21,10,39,22.60
2005,07,21,10,40,22.70
2005,07,21,10,41,22.90
2005,07,21,10,42,23.00
2005,07,21,10,43,23.10
2005,07,21,10,44,23.10
2005,07,21,10,45,23.00
2005,07,21,10,46,22.80
2005,07,21,10,47,22.50
2005,07,21,10,48,22.30
2005,07,21,10,49,22.20
2005,07,21,10,50,22.10
2005,07,21,10,51,22.00
2005,07,21,10,52,21.90
2005,07,21,10,53,21.60
2005,07,21,10,54,21.60
2005,07,21,10,55,21.60
2005,07,21,10,56,21.60
2005,07,21,10,57,21.70
2005,07,21,10,58,21.80
2005,07,21,10,59,21.80
2005,07,21,11,00,21.80
2005,07,21,11,01,21.80
2005,07,21,11,02,21.80
2005,07,21,11,03,21.80
2005,07,21,11,04,21.70
2005,07,21,11,05,21.60
2005,07,21,11,06,21.70
2005,07,21,11,07,21.70
2005,07,21,11,08,21.80
2005,07,21,11,09,21.80
2005,07,21,11,10,21.80
2005,07,21,11,11,21.80
2005,07,21,11,12,21.80
2005,07,21,11,13,21.80
2005,07,21,11,14,21.80
2005,07,21,11,15,21.90
2005,07,21,11,16,21.90
2005,07,21,11,17,21.90
2005,07,21,11,18,22.00
2005,07,21,11,19,22.00
2005,07,21,11,20,22.00
2005,07,21,11,21,21.80
2005,07,21,11,22,21.70
2005,07,21,11,23,21.60
2005,07,21,11,24,21.60
2005,07,21,11,25,21.70
2005,07,21,11,26,21.70
2005,07,21,11,27,21.80
2005,07,21,11,28,21.80
2005,07,21,11,29,21.80
2005,07,21,11,30,21.70
2005,07,21,11,31,21.70
2005,07,21,11,32,21.50
2005,07,21,11,33,21.20
2005,07,21,11,34,21.00
2005,07,21,11,35,21.00
2005,07,21,11,36,21.00
2005,07,21,11,37,21.00
2005,07,21,11,38,21.10
2005,07,21,11,39,21.30
2005,07,21,11,40,21.30
2005,07,21,11,41,21.50
2005,07,21,11,42,21.70
2005,07,21,11,43,22.00
2005,07,21,11,44,22.20
2005,07,21,11,45,22.30
2005,07,21,11,46,22.60
2005,07,21,11,47,22.80
2005,07,21,11,48,22.90
2005,07,21,11,49,22.90
2005,07,21,11,50,22.90
2005,07,21,11,51,22.90
2005,07,21,11,52,22.70
2005,07,21,11,53,22.50
2005,07,21,11,54,22.20
2005,07,21,11,55,21.90
2005,07,21,11,56,21.80
2005,07,21,11,57,21.80
2005,07,21,11,58,21.70
2005,07,21,11,59,21.70
2005,07,21,12,00,21.50
2005,07,21,12,01,21.30
2005,07,21,12,02,21.40
2005,07,21,12,03,21.50
2005,07,21,12,04,21.60
2005,07,21,12,05,21.60
2005,07,21,12,06,21.60
2005,07,21,12,07,21.60
2005,07,21,12,08,21.60
2005,07,21,12,09,21.70
2005,07,21,12,10,21.90
2005,07,21,12,11,22.00
2005,07,21,12,12,22.10
2005,07,21,12,13,22.20
2005,07,21,12,14,22.30
2005,07,21,12,15,22.50
2005,07,21,12,16,22.80
2005,07,21,12,17,22.90
2005,07,21,12,18,22.90
2005,07,21,12,19,23.00
2005,07,21,12,20,23.10
2005,07,21,12,21,23.30
2005,07,21,12,22,23.50
2005,07,21,12,23,23.70
2005,07,21,12,24,23.80
2005,07,21,12,25,23.90
2005,07,21,12,26,24.10
2005,07,21,12,27,24.10
2005,07,21,12,28,24.20
2005,07,21,12,29,24.20
2005,07,21,12,30,24.20
2005,07,21,12,31,24.20
2005,07,21,12,32,24.20
2005,07,21,12,33,24.20
2005,07,21,12,34,24.30
2005,07,21,12,35,24.40
2005,07,21,12,36,24.40
2005,07,21,12,37,24.50
2005,07,21,12,38,24.50
2005,07,21,12,39,24.50
2005,07,21,12,40,24.50
2005,07,21,12,41,24.50
2005,07,21,12,42,24.50
2005,07,21,12,43,24.50
2005,07,21,12,44,24.50
2005,07,21,12,45,24.60
2005,07,21,12,46,24.70
2005,07,21,12,47,24.90
2005,07,21,12,48,24.90
2005,07,21,12,49,24.90
2005,07,21,12,50,24.90
2005,07,21,12,51,25.00
2005,07,21,12,52,24.90
2005,07,21,12,53,24.80
2005,07,21,12,54,24.80
2005,07,21,12,55,24.90
2005,07,21,12,56,24.90
2005,07,21,12,57,24.90
2005,07,21,12,58,25.00
2005,07,21,12,59,25.10
2005,07,21,13,00,25.20
2005,07,21,13,01,25.30
2005,07,21,13,02,25.30
2005,07,21,13,03,25.30
2005,07,21,13,04,25.20
2005,07,21,13,05,25.20
2005,07,21,13,06,25.20
2005,07,21,13,07,25.10
2005,07,21,13,08,25.20
2005,07,21,13,09,25.10
2005,07,21,13,10,25.20
2005,07,21,13,11,25.30
2005,07,21,13,12,25.30
2005,07,21,13,13,25.30
2005,07,21,13,14,25.10
2005,07,21,13,15,25.10
2005,07,21,13,16,25.10
2005,07,21,13,17,24.80
2005,07,21,13,18,24.50
2005,07,21,13,19,24.20
2005,07,21,13,20,24.20
2005,07,21,13,21,24.00
2005,07,21,13,22,23.80
2005,07,21,13,23,23.70
2005,07,21,13,24,23.70
2005,07,21,13,25,23.70
2005,07,21,13,26,23.70
2005,07,21,13,27,23.70
2005,07,21,13,28,23.70
2005,07,21,13,29,23.70
2005,07,21,13,30,23.70
2005,07,21,13,31,23.70
2005,07,21,13,32,23.70
2005,07,21,13,33,23.60
2005,07,21,13,34,23.30
2005,07,21,13,35,23.10
2005,07,21,13,36,22.90
2005,07,21,13,37,22.80
2005,07,21,13,38,22.80
2005,07,21,13,39,22.70
2005,07,21,13,40,22.70
2005,07,21,13,41,22.70
2005,07,21,13,42,22.70
2005,07,21,13,43,22.70
2005,07,21,13,44,22.70
2005,07,21,13,45,22.80
2005,07,21,13,46,23.10
2005,07,21,13,47,23.00
2005,07,21,13,48,23.00
2005,07,21,13,49,23.10
2005,07,21,13,50,23.10
2005,07,21,13,51,23.00
2005,07,21,13,52,22.90
2005,07,21,13,53,22.90
2005,07,21,13,54,22.90
2005,07,21,13,55,22.90
2005,07,21,13,56,22.80
2005,07,21,13,57,22.60
2005,07,21,13,58,22.60
2005,07,21,13,59,22.40
2005,07,21,14,00,22.30
2005,07,21,14,01,22.20
2005,07,21,14,02,22.30
2005,07,21,14,03,22.40
2005,07,21,14,04,22.60
2005,07,21,14,05,22.60
2005,07,21,14,06,22.80
2005,07,21,14,07,22.80
2005,07,21,14,08,22.90
2005,07,21,14,09,22.90
2005,07,21,14,10,22.90
2005,07,21,14,11,22.90
2005,07,21,14,12,22.90
2005,07,21,14,13,23.10
2005,07,21,14,14,23.10
2005,07,21,14,15,23.20
2005,07,21,14,16,23.20
2005,07,21,14,17,23.20
2005,07,21,14,18,23.10
2005,07,21,14,19,22.90
2005,07,21,14,20,22.90
2005,07,21,14,21,22.80
2005,07,21,14,22,22.90
2005,07,21,14,23,23.00
2005,07,21,14,24,23.00
2005,07,21,14,25,22.90
2005,07,21,14,26,22.70
2005,07,21,14,27,22.60
2005,07,21,14,28,22.60
2005,07,21,14,29,22.60
2005,07,21,14,30,22.70
2005,07,21,14,31,22.70
2005,07,21,14,32,22.90
2005,07,21,14,33,22.90
2005,07,21,14,34,23.10
2005,07,21,14,35,23.20
2005,07,21,14,36,23.20
2005,07,21,14,37,23.10
2005,07,21,14,38,23.10
2005,07,21,14,39,23.10
2005,07,21,14,40,23.10
2005,07,21,14,41,23.20
2005,07,21,14,42,23.30
2005,07,21,14,43,23.30
2005,07,21,14,44,23.30
2005,07,21,14,45,23.30
2005,07,21,14,46,23.20
2005,07,21,14,47,23.20
2005,07,21,14,48,23.20
2005,07,21,14,49,23.20
2005,07,21,14,50,23.30
2005,07,21,14,51,23.40
2005,07,21,14,52,23.50
2005,07,21,14,53,23.60
2005,07,21,14,54,23.70
2005,07,21,14,55,23.90
2005,07,21,14,56,24.00
2005,07,21,14,57,24.10
2005,07,21,14,58,24.00
2005,07,21,14,59,24.10
2005,07,21,15,00,24.10
2005,07,21,15,01,24.00
2005,07,21,15,02,23.90
2005,07,21,15,03,23.80
2005,07,21,15,04,23.90
2005,07,21,15,05,23.90
2005,07,21,15,06,23.90
2005,07,21,15,07,23.90
2005,07,21,15,08,23.90
2005,07,21,15,09,23.90
2005,07,21,15,10,23.90
2005,07,21,15,11,23.90
2005,07,21,15,12,23.90
2005,07,21,15,13,23.80
2005,07,21,15,14,23.90
2005,07,21,15,15,24.10
2005,07,21,15,16,24.10
2005,07,21,15,17,24.10
2005,07,21,15,18,24.20
2005,07,21,15,19,24.30
2005,07,21,15,20,24.40
2005,07,21,15,21,24.40
2005,07,21,15,22,24.40
2005,07,21,15,23,24.40
2005,07,21,15,24,24.50
2005,07,21,15,25,24.60
2005,07,21,15,26,24.60
2005,07,21,15,27,24.70
2005,07,21,15,28,24.80
2005,07,21,15,29,24.80
2005,07,21,15,30,24.80
2005,07,21,15,31,24.80
2005,07,21,15,32,24.80
2005,07,21,15,33,24.80
2005,07,21,15,34,24.80
2005,07,21,15,35,25.00
2005,07,21,15,36,25.00
2005,07,21,15,37,25.00
2005,07,21,15,38,25.00
2005,07,21,15,39,25.00
2005,07,21,15,40,25.00
2005,07,21,15,41,25.00
2005,07,21,15,42,25.10
2005,07,21,15,43,25.20
2005,07,21,15,44,25.20
2005,07,21,15,45,25.20
2005,07,21,15,46,25.20
2005,07,21,15,47,24.80
2005,07,21,15,48,24.50
2005,07,21,15,49,24.40
2005,07,21,15,50,24.30
2005,07,21,15,51,24.20
2005,07,21,15,52,24.10
2005,07,21,15,53,24.10
2005,07,21,15,54,24.10
2005,07,21,15,55,24.10
2005,07,21,15,56,24.10
2005,07,21,15,57,24.10
2005,07,21,15,58,24.10
2005,07,21,15,59,24.10
2005,07,21,16,00,24.10
2005,07,21,16,01,24.20
2005,07,21,16,02,24.30
2005,07,21,16,03,24.40
2005,07,21,16,04,24.50
2005,07,21,16,05,24.70
2005,07,21,16,06,24.80
2005,07,21,16,07,24.90
2005,07,21,16,08,24.90
2005,07,21,16,09,25.00
2005,07,21,16,10,25.00
2005,07,21,16,11,24.90
2005,07,21,16,12,25.00
2005,07,21,16,13,25.10
2005,07,21,16,14,25.00
2005,07,21,16,15,25.10
2005,07,21,16,16,25.10
2005,07,21,16,17,25.20
2005,07,21,16,18,25.20
2005,07,21,16,19,25.20
2005,07,21,16,20,25.20
2005,07,21,16,21,25.20
2005,07,21,16,22,25.20
2005,07,21,16,23,25.20
2005,07,21,16,24,25.20
2005,07,21,16,25,25.10
2005,07,21,16,26,25.00
2005,07,21,16,27,25.00
2005,07,21,16,28,24.80
2005,07,21,16,29,24.80
2005,07,21,16,30,24.60
2005,07,21,16,31,24.50
2005,07,21,16,32,24.30
2005,07,21,16,33,24.20
2005,07,21,16,34,24.10
2005,07,21,16,35,24.20
2005,07,21,16,36,24.20
2005,07,21,16,37,24.20
2005,07,21,16,38,24.20
2005,07,21,16,39,24.20
2005,07,21,16,40,24.10
2005,07,21,16,41,24.00
2005,07,21,16,42,24.00
2005,07,21,16,43,24.00
2005,07,21,16,44,24.10
2005,07,21,16,45,24.10
2005,07,21,16,46,24.10
2005,07,21,16,47,24.20
2005,07,21,16,48,24.20
2005,07,21,16,49,24.10
2005,07,21,16,50,24.10
2005,07,21,16,51,24.10
2005,07,21,16,52,24.10
2005,07,21,16,53,24.20
2005,07,21,16,54,24.20
2005,07,21,16,55,24.30
2005,07,21,16,56,24.40
2005,07,21,16,57,24.50
2005,07,21,16,58,24.50
2005,07,21,16,59,24.50
2005,07,21,17,00,24.60
2005,07,21,17,01,24.70
2005,07,21,17,02,24.70
2005,07,21,17,03,24.70
2005,07,21,17,04,24.70
2005,07,21,17,05,24.60
2005,07,21,17,06,24.50
2005,07,21,17,07,24.40
2005,07,21,17,08,24.40
2005,07,21,17,09,24.30
2005,07,21,17,10,24.30
2005,07,21,17,11,24.30
2005,07,21,17,12,24.40
2005,07,21,17,13,24.40
2005,07,21,17,14,24.50
2005,07,21,17,15,24.50
2005,07,21,17,16,24.50
2005,07,21,17,17,24.60
2005,07,21,17,18,24.60
2005,07,21,17,19,24.70